Tracking 27122 objects as of 24-Mar-2023
HD Live streaming from Space Station
objects crossing your sky now

ARIANE 42P DEB

Track ARIANE 42P DEB now!
10-day predictions


NORAD ID: 44508
Int'l Code: 1992-052F
Perigee: 1,100.3 km
Apogee: 1,696.8 km
Inclination: 66.0 °
Period: 113.6 minutes
Semi major axis: 7769 km
RCS: Unknown
Launch date: August 10, 1992
Source: France (FR)
Launch site: FRENCH GUIANA (FRGUI)

Note: This is SATELLITE DEBRIS
Your satellite tracking list
Your tracking list is empty




NASA's NSSDC Master Catalog

Two Line Element Set (TLE):
1 44508U 92052F   23081.93389079  .00003679  00000-0  14502-1 0  9999
2 44508  66.0386 274.8606 0383888  83.2185 281.2341 12.67680862166718
Source of the keplerian elements: AFSPC